Preview of NWS' New Version of Forecast
This preview is not operational and should not be used for support decisions.

Regional Weather Roundup (RWR)

Issued by Gray - Portland, ME (GYX)

                            
931 
ASUS41 KGYX 250505
RWRGYX
WEATHER ROUNDUP FOR MAINE AND NEW HAMPSHIRE
NATIONAL WEATHER SERVICE GRAY ME
100 AM EDT FRI MAY 25 2018

MEZ002-005-006-010-012-015-018-020-021-024-026-027-029-250600-
MAINE
  
CITY           SKY/WX    TMP DP  RH WIND       PRES   REMARKS
PORTLAND       FAIR      52  49  89 S5        29.96F                  
SANFORD        FAIR      53  49  86 SW5       29.98F                  
BAR HARBOR     FAIR      50  46  86 SW12      29.96F                  
WISCASSET      FAIR      53  50  89 S6        29.97F                  
ROCKLAND       FAIR      52  48  86 SW10      29.96                   
FRYEBURG       FAIR      47  42  83 CALM      29.95F                  
LEWISTONAUBURN FAIR      44  43  96 CALM      29.95F                  
AUGUSTA        FAIR      48  46  93 S3        29.94F                  
WATERVILLE     FAIR      47  46  97 S5        29.91F                  
BANGOR         FAIR      51  46  83 S12       29.91F                  
GREENVILLE       N/A     49  46  90 SE7       29.84F                  
MILLINOCKET    FAIR      51  45  79 CALM      29.87F                  
HOULTON        MOCLDY    49  47  93 S7        29.82F                  
PRESQUE ISLE   CLOUDY    48  45  89 SE5       29.82F                  
FRENCHVILLE    CLOUDY    47  43  86 S6        29.79F                  
CARIBOU        CLOUDY    49  44  83 SE5       29.80F                  
$$

NHZ002-005-008-009-011-012-014-250600-
NEW HAMPSHIRE
  
CITY           SKY/WX    TMP DP  RH WIND       PRES   REMARKS
PORTSMOUTH     PTCLDY    53  48  82 SW6       29.98F                  
ROCHESTER      FAIR      52  50  93 VRB3      29.97F                  
NASHUA         FAIR      58  52  80 CALM      30.01F                  
MANCHESTER     FAIR      61  51  70 S7        29.99F                  
CONCORD        FAIR      55  49  80 CALM      29.99F                  
LACONIA        FAIR      48  44  86 CALM      29.98F                  
PLYMOUTH       FAIR      45  43  94 CALM      29.99F                  
BERLIN         FAIR      41  38  89 CALM      29.93F                  
WHITEFIELD     FAIR      42  40  92 CALM      29.95F                  
JAFFREY        FAIR      55  48  77 S7        30.04F                  
KEENE          FAIR      48  45  89 CALM      30.04                   
LEBANON        FAIR      50  42  74 CALM      29.98F                  
MT WASHINGTON  PTCLDY    45  28  53 W56         N/A                   
$$

VTZ005-007-008-250600-
VERMONT
  
CITY           SKY/WX    TMP DP  RH WIND       PRES   REMARKS
ST JOHNSBURY     N/A     47  43  86 MISG      29.94F                  
MONTPELIER     FAIR      47  43  86 CALM      29.99F                  
BURLINGTON     FAIR      66  42  41 S10       29.92F                  
$$

MAZ007-012-024-CTZ003-RIZ002-NYZ038-NYZ072-250600-
SOUTHERN NEW ENGLAND AND NY
  
CITY           SKY/WX    TMP DP  RH WIND       PRES   REMARKS
BOSTON         FAIR      55  49  80 SW17      30.03F                  
NANTUCKET      CLOUDY    52  52 100 SW12      30.10F                  
PROVIDENCE     FAIR      51  49  92 S8        30.09F                  
HARTFORD       FAIR      55  52  89 S8        30.06F                  
ALBANY         FAIR      61  46  57 CALM      30.03S                  
NEW YORK CITY  FAIR      71  45  39 SW8       30.08S                  
$$

ANZ081-ANZ082-ANZ150-NHZ014-MEZ023>029-250600-
COASTAL MARINE OBSERVATIONS
  
STATION/POSITION TIME  TEMP    WIND        PRES    WAVE
                       AIR SEA DIR/SP/G            HT/PER
                 (UTC) (F)     (DEG/KT/KT) (MB)    (FT/S)
MOUNT DESERT ROC 0500   48     200/ 20/ 22 1015.2F
MATINICUS ROCK   0400   50     220/ 18/ 20 1015.7F
ISLE OF SHOALS   0400   55     190/ 16/ 17 1015.7F
JEFFREYS LEDGE   0436      53                N/A     4/ 5
$$

.............KEY..............
   WCI - WIND CHILL
   TC  - TEMPERATURE IN CELSIUS
   VSB - VISIBILITY IN MILES
   HX  - HEAT INDEX
   FAIR- INDICATES FEW OR NO CLOUDS BELOW 12,000 FT, WITH NO 
         SIGNIFICANT WEATHER AND/OR OBSTRUCTIONS TO VISIBILITY.